This demonstration page uses our WeatherBlox Daily Observations layout. Learn more.

Left ArrowRight Arrow

38.80484, -77.04692

Hourly Observations for December 15, 2021

Temp ( °F °C ) Dew Point ( °F °C ) Humidity (%) Winds ( mph kmh ) Pressure ( in mb ) Visibility ( mi km ) Precip ( " mm )
12:52 am 00:52 Mostly Clear 41 5 32 0 70 70 ENE 5 7 30.60 1036 10 16 0.00 0.00
1:52 am 01:52 Mostly Clear 39 3.9 30 -1.1 70 70 NE 6 9 30.60 1036 10 16 0.00 0.00
2:52 am 02:52 Mostly Clear 37 2.8 30 -1.1 76 76 NNE 5 7 30.60 1036 10 16 0.00 0.00
3:52 am 03:52 Mostly Clear 38 3.3 30 -1.1 73 73 Calm 30.60 1036 10 16 0.00 0.00
4:52 am 04:52 Mostly Clear 38 3.3 31 -0.6 76 76 Calm 30.59 1036 10 16 0.00 0.00
5:52 am 05:52 Mostly Clear 38 3.3 31 -0.6 76 76 Calm 30.59 1036 10 16 0.00 0.00
6:01 am 06:01 Mostly Cloudy 37 2.8 31 -0.6 79 79 NE 5 7 30.60 1036 10 16 0.00 0.00
6:52 am 06:52 Mostly Cloudy 39 3.9 33 0.6 79 79 NE 3 6 30.60 1036 10 16 0.00 0.00
7:17 am 07:17 Mostly Cloudy 41 5 34 1.1 76 76 Calm 30.61 1037 10 16 0.00 0.00
7:52 am 07:52 Mostly Cloudy 41 5 35 1.7 79 79 NE 3 6 30.60 1036 10 16 0.00 0.00
8:52 am 08:52 Mostly Cloudy 43 6.1 34 1.1 71 71 NE 5 7 30.59 1036 10 16 0.00 0.00
9:52 am 09:52 Partly Cloudy 48 8.9 35 1.7 61 61 Calm 30.58 1036 10 16 0.00 0.00
10:52 am 10:52 Partly Cloudy 51 10.6 37 2.8 59 59 Calm 30.55 1035 10 16 0.00 0.00
11:52 am 11:52 Mostly Cloudy 54 12.2 40 4.4 59 59 Calm 30.53 1034 10 16 0.00 0.00
12:52 pm 12:52 Mostly Cloudy 56 13.3 42 5.6 60 60 S 6 9 30.49 1032 10 16 0.00 0.00
1:52 pm 13:52 Mostly Cloudy 58 14.4 43 6.1 58 58 S 5 7 30.45 1031 10 16 0.00 0.00
2:52 pm 14:52 Mostly Cloudy 58 14.4 43 6.1 58 58 S 5 7 30.42 1030 10 16 0.00 0.00
3:52 pm 15:52 Mostly Cloudy 58 14.4 45 7.2 62 62 SSW 5 7 30.42 1030 10 16 0.00 0.00
4:52 pm 16:52 Mostly Cloudy 56 13.3 44 6.7 65 65 S 6 9 30.40 1029 10 16 0.00 0.00
5:52 pm 17:52 Mostly Cloudy 53 11.7 44 6.7 72 72 S 3 6 30.40 1029 10 16 0.00 0.00
6:52 pm 18:52 Mostly Cloudy 51 10.6 44 6.7 77 77 S 3 6 30.38 1029 10 16 0.00 0.00
7:52 pm 19:52 Mostly Cloudy 50 10 43 6.1 77 77 S 5 7 30.37 1028 10 16 0.00 0.00
8:52 pm 20:52 Mostly Cloudy 48 8.9 43 6.1 83 83 S 7 11 30.35 1028 10 16 0.00 0.00
9:52 pm 21:52 Mostly Cloudy 48 8.9 43 6.1 83 83 S 6 9 30.33 1027 10 16 0.00 0.00
10:52 pm 22:52 Mostly Cloudy 48 8.9 44 6.7 86 86 S 7 11 30.32 1027 10 16 0.00 0.00
11:52 pm 23:52 Mostly Cloudy 47 8.3 43 6.1 86 86 SSW 6 9 30.29 1026 10 16 0.00 0.00

Powered by AerisWeather